Lapse_Rate
6.0 5.8 5.5 5.4 5.7 5.4 5.7 6.1 5.8 5.7 5.5 5.2 5.0 5.0 5.0 5.5 6.2 6.1 6.1 6.0 6.0 6.0 5.9 6.4 6.6 6.6 6.5 7.0 7.0 6.5 6.6 6.0 5.5 5.4 5.3 5.8 5.6 5.3 4.8 5.5 5.5 5.6 5.6 5.6
6.1 5.8 5.2 5.4 5.6 5.6 5.1 6.0 5.9 5.8 5.3 5.3 5.1 5.4 5.2 5.4 5.9 6.1 6.1 6.1 6.2 6.3 6.1 6.3 6.5 6.5 6.7 6.9 6.9 6.6 6.7 6.4 5.6 5.4 5.2 5.2 5.3 5.1 4.8 5.1 5.4 5.4 5.4 5.5
6.2 5.6 5.3 5.3 5.5 5.5 5.5 6.1 5.9 5.7 5.8 5.4 5.1 5.4 5.3 5.5 6.0 6.3 6.2 6.2 6.4 6.5 6.5 6.3 6.5 6.6 6.7 7.0 6.8 6.4 6.6 6.5 6.0 4.9 5.4 5.3 5.2 5.2 4.9 5.3 5.3 5.4 5.4 5.6
6.1 5.6 5.4 5.2 5.2 5.3 5.5 5.5 5.7 5.5 5.8 5.3 4.8 4.3 5.4 5.6 6.1 6.5 6.3 6.3 6.4 6.5 6.6 6.5 6.5 6.7 6.6 6.7 6.8 6.3 6.2 6.5 6.2 5.5 5.1 5.3 5.3 5.5 5.1 5.1 5.1 5.2 5.4 5.2
6.0 5.6 5.3 5.2 5.1 4.9 5.2 5.6 5.9 5.3 5.5 5.3 4.7 4.1 5.7 5.7 6.3 6.8 6.6 6.6 6.6 6.6 6.7 6.5 6.5 6.6 6.6 6.5 6.7 6.3 5.8 6.3 6.2 5.6 5.3 5.3 5.1 5.5 5.4 5.2 5.0 5.1 5.3 5.3
6.2 5.6 5.2 5.0 4.9 4.9 5.2 5.5 5.3 5.4 5.4 3.9 4.7 4.3 5.8 5.5 5.9 7.0 7.0 6.8 6.7 6.6 6.6 6.6 6.4 6.1 6.0 5.7 5.9 6.0 5.8 6.3 6.5 6.0 5.8 5.6 5.6 5.5 5.1 4.9 4.8 4.9 5.0 5.3
5.9 5.5 5.1 4.9 4.9 4.9 5.2 5.0 5.6 4.0 3.4 2.9 4.5 4.5 6.2 5.7 5.8 6.6 7.2 7.0 6.9 6.7 6.6 6.5 6.3 5.9 5.4 5.2 5.3 5.7 5.8 6.1 6.3 6.4 6.2 5.9 6.0 5.2 5.1 4.6 4.6 4.7 5.0 5.1
6.0 5.8 5.4 4.9 4.8 4.9 4.9 5.4 5.9 3.7 2.5 3.0 4.8 5.5 6.3 5.9 5.6 6.1 6.7 7.2 7.1 6.9 6.7 6.5 6.2 5.9 5.6 5.5 5.4 5.5 5.9 6.0 6.3 6.2 6.0 5.8 5.8 5.5 5.3 5.1 4.4 4.9 5.1 5.1
6.1 5.9 5.6 4.8 4.6 4.7 4.7 5.1 5.2 4.9 3.8 2.7 5.0 5.9 6.1 6.0 5.6 5.8 6.0 6.2 7.0 7.2 7.1 6.7 6.5 6.1 5.9 5.8 5.6 5.5 5.7 5.9 6.2 6.4 6.4 6.0 6.0 5.8 5.7 5.4 5.1 4.9 4.9 5.1
6.0 5.9 5.5 4.8 4.5 4.5 4.7 4.7 4.8 5.2 2.4 2.9 4.6 5.4 6.3 6.2 6.1 5.8 5.9 6.0 6.2 6.9 7.2 7.1 6.9 6.6 6.3 6.1 5.9 5.9 5.7 5.7 5.9 6.2 6.4 6.4 6.1 5.9 5.8 5.5 5.6 5.5 5.2 4.9
5.9 5.7 5.6 5.0 4.7 4.4 4.4 4.7 5.0 5.1 4.7 2.3 1.2 5.9 6.4 6.3 6.2 6.2 5.9 6.1 6.1 6.1 6.6 7.0 7.0 6.8 6.7 6.3 6.1 5.9 5.9 5.9 5.9 5.9 6.1 6.4 6.5 6.3 6.0 6.2 5.9 5.8 5.9 5.5
6.0 5.8 5.7 5.5 4.8 4.4 4.4 4.6 4.9 5.6 4.3 4.5 4.0 6.1 6.6 6.5 6.4 6.2 6.1 6.0 6.3 6.3 6.3 6.6 6.7 6.7 6.6 6.3 5.7 5.5 5.7 5.8 5.9 6.0 6.1 6.2 6.2 6.5 6.7 6.8 6.7 6.5 6.5 6.1
5.8 5.7 5.7 5.4 4.5 4.5 4.7 5.0 5.1 5.0 4.9 5.0 3.6 6.9 6.8 6.6 6.5 6.4 6.3 6.1 6.0 6.3 6.2 6.2 6.4 6.5 6.5 6.2 5.8 5.5 5.2 5.3 5.6 5.9 6.1 6.2 6.3 6.4 6.6 6.7 6.8 6.7 6.7 6.7
5.7 5.7 5.8 5.7 5.4 5.0 4.8 5.0 5.1 5.0 5.0 5.5 6.4 7.4 6.6 6.5 6.8 6.6 6.3 6.3 6.2 6.0 6.2 6.0 5.9 6.1 6.3 6.1 5.9 5.9 5.7 5.6 5.9 6.1 6.2 6.3 6.4 6.5 6.6 6.7 6.7 6.7 6.6 6.4
5.7 5.6 5.6 5.4 5.2 4.8 4.9 5.1 5.2 5.5 5.8 5.7 6.9 7.3 7.1 7.0 6.9 6.7 6.6 6.4 6.4 6.3 6.2 6.2 5.9 5.9 6.1 6.0 5.9 5.9 5.7 5.7 5.8 5.8 6.0 6.3 6.4 6.5 6.5 6.7 6.6 6.5 6.3 6.2
5.7 5.4 5.5 5.4 5.2 5.1 5.0 5.2 5.4 5.5 6.0 6.5 6.7 7.5 7.3 7.2 7.1 6.9 6.7 6.4 6.3 6.4 6.3 6.2 6.2 6.0 6.0 6.1 6.1 6.0 6.3 6.3 6.3 6.1 6.1 6.1 6.3 6.4 6.5 6.4 6.3 6.4 6.1 6.0
5.6 5.4 5.1 5.0 5.0 4.9 5.3 6.5 6.1 6.4 6.7 6.8 7.1 7.1 7.2 7.2 7.0 6.9 6.9 6.8 6.5 6.4 6.3 6.3 6.2 6.1 6.1 6.0 6.1 6.1 6.5 6.7 6.5 6.4 6.4 6.2 6.2 6.1 6.1 6.1 6.0 6.1 6.0 5.8
5.5 5.5 5.1 4.9 4.8 3.5 6.2 6.4 6.4 6.6 6.8 7.1 7.2 7.1 7.1 7.3 7.1 7.0 7.1 7.0 6.9 6.7 6.4 6.4 6.3 6.3 6.2 6.1 6.1 5.9 6.4 6.6 6.5 6.5 6.4 6.5 6.3 6.1 6.0 6.0 6.2 6.2 6.2 5.9
5.3 5.3 4.8 4.7 4.8 5.7 6.7 6.7 6.7 6.6 7.2 7.2 7.3 7.1 7.1 7.2 7.1 7.1 7.2 7.1 7.1 6.9 6.7 6.6 6.5 6.4 6.4 6.3 6.1 6.1 6.1 6.4 6.7 6.7 6.7 6.6 6.6 6.4 6.4 6.3 6.1 5.9 5.8 5.7
5.1 5.3 4.8 4.7 4.5 3.0 6.6 6.7 6.6 6.6 6.9 7.3 7.1 7.1 7.0 7.0 7.1 6.8 7.0 7.1 7.1 7.0 6.8 6.9 6.8 6.7 6.6 6.6 6.4 6.3 6.1 6.2 6.4 6.7 6.7 6.7 6.7 6.7 6.6 6.5 6.3 6.3 6.1 6.1
5.1 4.8 4.5 4.2 4.4 4.8 6.6 6.8 6.7 6.0 7.0 6.9 6.9 6.9 7.0 7.0 7.0 6.9 6.7 6.6 6.8 6.9 6.8 6.9 6.8 6.9 6.7 6.7 6.6 6.5 6.4 6.3 6.2 6.2 6.6 6.8 6.9 6.9 6.8 6.7 6.8 6.8 6.7 6.3
6.0 5.8 5.0 3.7 3.5 4.5 7.2 6.8 6.6 7.0 7.0 6.9 6.7 6.5 6.7 6.8 6.7 6.7 6.6 6.5 6.6 6.8 6.8 6.9 6.9 6.9 7.0 6.9 6.7 6.7 6.6 6.5 6.5 6.5 6.4 6.5 6.6 6.8 6.9 7.0 6.9 6.7 6.6 6.7
5.5 5.9 6.2 5.7 6.6 7.1 7.0 7.1 7.0 7.0 7.0 7.0 6.8 6.5 6.5 6.6 6.6 6.5 6.7 6.5 6.6 6.6 6.6 6.7 6.7 6.7 6.9 7.0 7.0 6.9 6.9 6.9 6.8 6.6 6.7 6.7 6.6 6.5 6.6 6.8 7.0 7.1 7.0 6.8
5.4 5.9 5.7 5.8 6.5 6.7 6.9 6.8 6.9 6.9 6.8 6.8 6.8 6.8 6.5 6.5 6.6 6.4 6.3 6.4 6.5 6.6 6.6 6.7 6.6 6.6 6.7 6.9 6.8 7.2 7.1 7.0 7.1 7.0 6.9 6.8 6.8 6.8 6.9 6.9 6.9 6.9 7.0 7.1
5.5 5.5 5.4 5.5 6.1 6.5 6.8 7.0 6.7 6.4 6.2 6.5 6.6 6.7 6.7 6.6 6.4 6.3 6.2 6.2 6.5 6.5 6.6 6.7 6.8 6.8 6.9 6.9 6.9 7.1 7.2 7.3 7.1 7.2 7.2 7.1 7.0 6.9 6.9 6.9 7.0 7.0 7.0 7.0
4.8 5.2 5.5 5.7 6.6 6.3 6.5 6.5 6.2 6.1 5.9 6.2 6.1 6.6 6.6 6.7 6.6 6.4 6.2 6.2 6.3 6.4 6.6 6.7 6.8 6.7 6.6 7.1 6.8 6.8 6.9 6.9 7.0 7.1 7.1 7.1 7.2 7.3 7.1 7.1 7.0 7.1 7.1 7.1
Wind_Speed
5 8 4 4 3 1 1 3 3 4 0 5 3 9 12 6 5 7 5 4 5 6 3 3 4 5 7 8 11 11 11 12 8 7 6 4 3 4 4 8 10 7 8 11
6 4 3 2 3 4 4 1 4 4 2 2 5 15 7 3 5 5 5 5 5 5 5 4 5 5 7 6 9 11 11 10 8 6 5 3 3 3 3 8 10 11 8 11
6 2 1 2 4 3 1 2 2 3 6 0 6 6 5 2 3 5 6 5 4 5 7 5 6 5 6 9 8 9 10 9 7 9 5 4 3 2 4 6 6 9 12 4
6 0 3 2 2 2 2 2 2 2 3 2 5 4 5 4 7 5 8 6 7 6 5 3 5 6 6 7 8 8 8 9 9 9 7 8 4 4 3 4 5 5 11 12
2 2 3 3 1 2 3 2 2 1 2 1 4 3 6 4 5 4 7 7 6 6 5 5 5 5 4 6 7 7 7 6 7 7 6 5 5 4 4 4 6 8 7 10
2 1 2 1 2 2 4 1 4 3 1 4 2 3 5 3 4 6 4 7 6 6 5 5 4 3 4 5 7 8 8 6 6 5 6 6 5 6 5 5 5 5 5 4
4 2 2 3 3 0 2 3 3 6 5 4 0 1 8 6 5 4 6 8 7 6 5 5 6 5 5 6 7 7 8 9 7 7 7 6 6 6 5 4 3 5 4 4
4 5 1 3 2 2 2 1 5 4 2 5 3 4 4 4 5 6 7 7 7 7 5 5 6 5 3 6 6 6 8 8 8 7 6 6 6 4 3 3 3 3 3 3
4 3 1 3 1 3 4 3 1 7 3 2 3 6 8 3 5 4 8 6 7 7 6 6 6 4 3 4 5 6 7 8 9 9 7 6 6 6 5 6 4 3 4 4
4 2 2 1 1 2 2 5 3 4 3 5 4 5 4 5 5 6 7 8 8 6 6 5 5 5 3 2 3 5 6 6 7 8 7 6 5 5 4 4 5 5 5 5
3 3 3 2 3 5 1 1 4 5 3 4 2 5 7 6 4 6 7 7 8 8 7 5 4 3 3 3 3 4 6 7 7 7 6 6 6 6 5 4 5 5 4 4
5 4 2 4 2 1 3 3 2 4 3 1 3 6 4 8 8 6 9 8 6 6 7 6 4 3 2 4 4 4 5 6 6 6 7 6 6 6 5 5 5 5 4 3
6 1 2 5 4 4 4 4 3 4 3 6 5 6 2 6 8 7 7 8 7 4 7 5 4 4 4 3 3 2 2 2 4 5 6 6 6 6 5 5 5 5 4 4
5 2 6 6 5 4 3 4 5 4 4 5 7 8 10 8 8 6 8 7 5 4 4 4 5 5 3 3 3 3 3 3 5 5 5 5 5 5 5 5 6 6 6 5
2 5 3 3 3 2 4 5 10 9 5 6 4 8 10 8 7 8 6 5 5 6 3 2 2 3 4 4 3 4 3 2 2 3 3 3 3 4 4 5 5 6 6 6
1 2 2 4 1 3 5 10 12 8 3 9 2 15 13 10 6 6 7 4 4 6 6 4 4 4 5 5 4 4 4 3 1 1 2 3 4 4 5 4 4 6 6 6
6 5 3 5 1 3 7 9 16 7 6 8 8 13 3 3 7 5 6 6 7 7 6 5 5 5 5 5 4 4 4 2 1 1 1 3 3 4 4 4 4 6 5 5
6 5 2 3 3 2 5 4 8 9 6 17 8 7 6 5 3 7 8 7 9 8 8 6 5 4 6 5 4 3 3 3 3 2 1 2 2 3 3 3 5 6 4 4
2 4 2 3 3 7 3 5 8 9 8 23 21 13 6 2 5 8 7 8 9 7 7 6 5 4 6 7 5 4 3 2 3 4 2 2 3 3 3 4 4 3 3 4
4 3 3 3 4 5 5 4 5 3 6 8 19 10 8 7 2 4 5 4 4 5 3 6 7 5 7 7 7 5 3 3 4 4 4 1 1 3 4 3 3 2 3 4
3 1 6 3 3 8 8 6 6 4 6 5 12 7 9 7 5 2 5 3 1 3 5 4 6 7 6 7 8 7 5 6 4 2 0 3 3 2 3 4 2 3 3 4
9 9 4 3 2 9 8 5 8 4 1 5 6 7 11 6 6 6 6 4 5 5 5 6 6 6 7 7 7 7 7 5 5 4 1 2 1 2 2 1 3 3 4 4
5 7 7 11 8 3 14 3 6 1 2 4 5 7 7 9 7 7 6 7 6 6 5 4 6 5 4 6 7 8 6 7 7 6 6 4 3 2 2 2 2 2 3 4
5 3 3 3 7 14 11 12 8 4 5 3 5 7 9 8 8 7 7 6 6 5 6 4 3 5 7 7 7 8 6 7 8 7 7 6 6 6 4 3 3 3 3 3
5 10 7 5 9 5 9 13 13 10 9 7 5 6 10 8 6 7 6 8 7 5 4 6 8 8 10 7 10 8 8 8 7 7 6 6 5 7 5 5 4 4 3 4
5 7 7 7 11 7 8 7 8 11 15 16 10 8 7 9 10 7 7 6 4 6 4 5 7 7 10 8 9 8 9 10 9 8 6 7 6 5 5 4 4 12 13 11
Wind_Direction
17 60 43 348 329 347 298 113 274 261 266 10 295 288 285 272 255 277 272 276 296 303 299 318 346 354 356 359 357 359 354 355 359 348 358 2 12 344 7 26 35 28 195 190
36 74 315 262 31 71 339 66 310 284 329 2 330 298 295 252 250 242 271 273 278 299 315 335 348 1 355 354 352 357 353 1 359 352 348 323 302 312 331 9 22 24 359 189
109 168 275 63 27 32 351 95 311 284 323 193 327 310 334 323 279 282 271 261 270 276 300 326 337 347 351 356 356 352 345 358 5 350 344 335 301 312 24 356 1 0 351 290
94 12 114 83 33 93 306 89 291 285 29 330 30 287 309 323 310 289 290 277 273 289 295 310 333 336 353 342 344 348 343 355 7 354 12 5 358 2 9 348 332 348 340 345
185 105 82 65 360 94 286 344 238 313 75 51 27 65 271 346 327 316 325 322 281 275 280 303 324 324 339 350 343 336 344 353 359 357 15 10 355 1 339 357 350 5 315 357
87 105 76 107 299 174 296 223 35 43 40 36 339 95 285 295 280 304 303 313 296 288 290 299 303 323 330 343 350 343 347 336 353 356 15 17 357 7 4 7 10 338 339 339
357 12 67 52 4 52 44 46 358 358 11 219 349 66 248 280 274 243 285 300 303 299 279 288 306 329 334 345 350 343 340 345 350 359 8 1 5 14 348 6 3 340 340 348
130 322 71 12 94 219 340 232 140 212 295 281 303 244 260 219 284 280 278 277 292 294 271 272 279 300 328 335 339 345 342 344 351 358 355 349 2 12 345 351 341 325 319 317
125 299 355 66 35 111 308 33 351 102 48 2 271 288 295 280 306 311 294 304 297 293 277 262 275 286 318 337 334 335 346 347 346 353 349 351 3 358 348 343 340 336 330 341
186 58 309 67 245 52 225 144 56 14 48 314 296 281 249 314 315 329 323 312 308 307 295 267 260 281 300 327 323 337 347 346 349 343 342 355 354 348 345 350 357 345 339 342
130 103 283 79 209 177 275 348 55 109 96 159 291 271 211 226 270 293 292 291 296 300 301 292 255 255 289 320 341 342 349 349 354 342 339 355 355 357 357 8 351 350 340 343
180 147 144 205 250 13 282 242 199 122 242 89 130 276 201 227 237 245 272 282 279 288 295 298 267 252 269 305 330 348 343 345 334 334 353 1 359 5 6 6 3 355 344 344
179 247 24 354 7 356 252 207 147 91 91 195 137 264 302 270 258 239 268 299 299 307 318 314 290 276 270 250 268 292 285 288 321 337 355 0 6 2 11 5 4 6 6 20
116 107 173 195 192 127 204 221 185 149 127 167 226 284 286 275 260 274 287 272 281 289 279 297 307 303 285 277 280 288 304 333 342 351 358 14 3 359 6 10 21 21 20 28
182 200 168 258 225 236 225 186 193 200 189 175 245 217 258 252 248 262 247 272 312 301 296 232 216 283 286 279 280 283 281 301 339 350 348 1 11 27 18 26 31 37 29 39
204 191 119 289 288 225 261 223 209 216 262 284 84 281 235 271 244 262 245 238 260 274 269 248 225 210 244 240 240 252 255 249 226 14 357 2 22 25 30 41 34 66 45 39
156 137 112 267 330 304 278 223 188 186 214 162 188 225 171 271 240 248 246 219 239 247 251 243 225 203 187 208 200 209 242 258 228 186 64 38 29 34 24 14 33 56 64 57
144 126 102 246 11 316 244 136 179 202 230 215 253 233 199 199 251 279 248 232 247 243 236 231 223 182 155 162 174 161 194 246 263 209 125 81 75 53 25 32 45 44 36 45
41 133 113 174 197 297 236 195 165 180 270 205 220 224 199 179 321 285 237 218 235 237 230 214 191 169 148 149 166 177 177 253 288 264 209 160 128 98 70 60 58 42 69 59
98 60 125 120 168 223 247 176 185 209 290 190 197 204 165 140 166 253 196 194 215 236 218 187 160 159 149 162 149 167 242 236 252 276 288 292 168 140 128 122 98 47 52 61
136 96 183 161 225 287 246 147 145 105 241 153 185 171 156 179 196 182 146 159 123 165 187 164 173 172 192 155 153 167 179 231 255 241 141 334 310 208 160 144 123 127 109 98
167 160 187 99 109 268 137 87 180 219 67 152 173 188 187 199 181 177 193 182 171 178 180 182 186 196 182 169 163 175 197 191 168 165 205 220 245 311 312 154 134 124 129 118
223 191 179 186 207 208 195 218 234 342 205 196 183 202 186 187 203 188 200 203 205 200 211 204 196 205 222 187 180 185 210 166 164 164 190 202 240 275 193 217 256 153 160 158
246 173 192 109 234 231 223 243 249 223 231 215 217 187 178 194 200 210 210 215 201 200 195 189 182 219 228 204 204 218 172 163 162 185 192 192 208 220 232 219 193 227 207 190
179 143 170 266 281 272 236 230 237 219 219 238 236 203 197 191 207 204 208 222 221 205 189 178 198 218 229 192 210 202 185 166 186 192 186 197 193 208 213 219 207 208 221 217
189 174 183 211 219 195 242 203 188 204 215 211 198 216 216 192 209 198 223 223 202 212 197 205 216 219 235 212 218 203 192 186 182 198 197 195 199 197 205 206 233 234 233 233